User: anonymous   Login
Location: Unspecified
(0.0000°N, 0.0000°E)
Time: 10:38:54
(UTC+00:00)
Language:

MTI - Orbit

View from above orbital plane
View from above orbital plane
View from above satellite
View from above satellite

Ground track
Ground track

The orbit data is extracted from the following two-line orbital elements,

1 26102U 00014A   18267.49268089 +.00003913 +00000-0 +69258-4 0  9996
2 26102 097.5815 106.9114 0009402 039.0760 019.3494 15.50929668026414
Epoch (UTC): 24 September 2018 11:49:27
Eccentricity: 0.0009402
inclination: 97.5815°
perigee height: 407 km
apogee height: 420 km
right ascension of ascending node: 106.9114°
argument of perigee: 39.0760°
revolutions per day: 15.50929668
mean anomaly at epoch: 19.3494°
orbit number at epoch: 2641

The dashed part of the orbit path shows where the satellite is in the earth's shadow,  

DLR